User: anonymous   Login
Location: Irma
(52.9170°N, 111.2330°W)
Time: 09:51:03
(UTC-06:00)
Language:

Cosmos 1633 Rocket - Orbit

View from above orbital plane
View from above orbital plane
View from above satellite
View from above satellite

Ground track
Ground track

The orbit data is extracted from the following two-line orbital elements,

1 15593U 85020B   16177.21466803  .00000084  00000-0  71142-5 0  9992
2 15593  82.5380 236.6813 0012814 133.6955 282.6272 14.84214753691428
Epoch (UTC): 25 June 2016 05:09:07
Eccentricity: 0.0012814
inclination: 82.5380°
perigee height: 607 km
apogee height: 625 km
right ascension of ascending node: 236.6813°
argument of perigee: 133.6955°
revolutions per day: 14.84214753
mean anomaly at epoch: 282.6272°
orbit number at epoch: 69142

The dashed part of the orbit path shows where the satellite is in the earth's shadow,  

DLR